TimeCDT,TemperatureF,Dew PointF,Humidity,Sea Level PressureIn,VisibilityMPH,Wind Direction,Wind SpeedMPH,Gust SpeedMPH,PrecipitationIn,Events,Conditions,WindDirDegrees,DateUTC
12:53 AM,27.0,17.1,66,30.50,10.0,NNE,6.9,-,N/A,,Clear,20,2013-10-29 05:53:00
1:53 AM,25.0,17.1,72,30.49,10.0,NNE,5.8,-,N/A,,Clear,30,2013-10-29 06:53:00
2:53 AM,24.1,17.1,75,30.48,10.0,NE,3.5,-,N/A,,Clear,40,2013-10-29 07:53:00
3:53 AM,24.1,17.1,75,30.47,10.0,NNE,3.5,-,N/A,,Partly Cloudy,30,2013-10-29 08:53:00
4:53 AM,25.0,18.0,75,30.43,10.0,NE,4.6,-,N/A,,Clear,40,2013-10-29 09:53:00
5:53 AM,26.1,19.0,75,30.41,10.0,NNE,4.6,-,N/A,,Mostly Cloudy,20,2013-10-29 10:53:00
6:53 AM,26.1,19.0,75,30.40,10.0,NNE,3.5,-,N/A,,Overcast,30,2013-10-29 11:53:00
7:53 AM,26.1,19.9,78,30.37,10.0,NNE,3.5,-,N/A,,Overcast,30,2013-10-29 12:53:00
8:53 AM,28.0,21.0,75,30.37,10.0,NNE,3.5,-,N/A,,Overcast,20,2013-10-29 13:53:00
9:53 AM,28.9,21.9,75,30.38,10.0,NNE,3.5,-,N/A,,Overcast,20,2013-10-29 14:53:00
10:53 AM,30.0,21.9,72,30.38,10.0,Calm,Calm,-,N/A,,Overcast,0,2013-10-29 15:53:00
11:53 AM,32.0,23.0,69,30.36,10.0,Calm,Calm,-,N/A,,Overcast,0,2013-10-29 16:53:00
12:53 PM,33.1,24.1,70,30.33,10.0,Calm,Calm,-,N/A,,Overcast,0,2013-10-29 17:53:00
1:53 PM,35.1,26.1,70,30.29,10.0,Calm,Calm,-,N/A,,Overcast,0,2013-10-29 18:53:00
2:53 PM,36.0,26.1,67,30.26,10.0,ESE,3.5,-,N/A,,Overcast,110,2013-10-29 19:53:00
3:53 PM,36.0,26.1,67,30.23,10.0,ENE,3.5,-,N/A,,Overcast,60,2013-10-29 20:53:00
4:53 PM,36.0,25.0,64,30.21,10.0,NE,6.9,-,N/A,,Overcast,50,2013-10-29 21:53:00
5:53 PM,36.0,25.0,64,30.19,10.0,ENE,4.6,-,N/A,,Overcast,60,2013-10-29 22:53:00
6:53 PM,36.0,26.1,67,30.19,10.0,Calm,Calm,-,N/A,,Overcast,0,2013-10-29 23:53:00
7:53 PM,36.0,26.1,67,30.19,10.0,Calm,Calm,-,N/A,,Overcast,0,2013-10-30 00:53:00
8:53 PM,36.0,27.0,70,30.17,10.0,Calm,Calm,-,N/A,,Overcast,0,2013-10-30 01:53:00
9:11 PM,35.6,26.6,70,30.13,9.0,Calm,Calm,-,N/A,,Overcast,0,2013-10-30 02:11:00
9:53 PM,35.1,27.0,72,30.17,10.0,Calm,Calm,-,N/A,,Overcast,0,2013-10-30 02:53:00
10:40 PM,35.6,28.4,75,30.13,10.0,Calm,Calm,-,N/A,,Overcast,0,2013-10-30 03:40:00
10:53 PM,36.0,28.9,76,30.17,10.0,Calm,Calm,-,N/A,,Overcast,0,2013-10-30 03:53:00
11:53 PM,36.0,28.9,76,30.15,10.0,Calm,Calm,-,N/A,,Overcast,0,2013-10-30 04:53:00